Date String (YYYY-MM-DD hh:mm:ss) UTC,Instrument flags,absolute air pressure of the measurement (hPa),sample flow rate (lpm),inlet stack bypass flow (lpm),air temperature of the measurement (°C),ambient temperature measured by the external sensor (°C),aerosol sample conditioner tube jacket temperature (°C),OPC LED temperature (°C),internal box temperature (°C),relative humidity of the measurement (%),span deviation,mass concentration of particles derived from Lorenz-Mie calculation of OPC scattering (μg/m³),mass concentration of particles derived from Lorenz-Mie calculation of OPC scattering (μg/m³),mass concentration of particles derived from Lorenz-Mie calculation of OPC scattering (μg/m³)
DateTimeUTC,F1_M11,P_M11,Q1_M11,Q2_M11,T1_M11,T2_M11,T3_M11,T4_M11,T5_M11,U1_M11,ZSPAN_M11,X0_M11,X2_M11,X1_M11
2023-12-23 21:00:00,SystemResetWarning,0817.6,5.00,000.00,025.2,024.5,000.0,033.4,026.6,13.9,0000.0,0005.27,0002.60,0002.07
2023-12-23 21:01:00,SystemResetWarning,0817.6,5.00,000.00,025.2,024.5,000.0,033.4,026.6,14.1,0000.0,0005.26,0002.60,0002.05
2023-12-23 21:02:00,SystemResetWarning,0817.7,5.00,000.00,025.2,024.5,000.0,033.4,026.6,14.0,0000.0,0005.58,0002.59,0002.03
2023-12-23 21:03:00,SystemResetWarning,0817.6,5.00,000.00,025.2,024.5,000.0,033.5,026.6,13.9,0000.0,0006.14,0002.58,0002.03
2023-12-23 21:04:00,SystemResetWarning,0817.7,5.00,000.00,025.2,024.5,000.0,033.5,026.6,13.8,0000.0,0006.32,0002.58,0002.02
2023-12-23 21:05:00,SystemResetWarning,0817.7,5.00,000.00,025.2,024.5,000.0,033.5,026.6,13.9,0000.0,0006.36,0002.58,0002.00
2023-12-23 21:06:00,SystemResetWarning,0817.7,5.00,000.00,025.2,024.5,000.0,033.5,026.6,13.8,0000.0,0006.39,0002.59,0001.99
2023-12-23 21:07:00,SystemResetWarning,0817.8,5.00,000.00,025.2,024.5,000.0,033.5,026.6,13.8,0000.0,0006.39,0002.58,0001.97
2023-12-23 21:08:00,SystemResetWarning,0817.8,5.00,000.00,025.2,024.5,000.0,033.5,026.6,13.7,0000.0,0006.84,0002.58,0001.97
2023-12-23 21:09:00,SystemResetWarning,0817.8,5.00,000.00,025.2,024.5,000.0,033.5,026.6,13.7,0000.0,0007.28,0002.58,0001.95
2023-12-23 21:10:00,SystemResetWarning,0817.8,5.00,000.00,025.2,024.5,000.0,033.5,026.7,13.8,0000.0,0006.61,0002.57,0001.94
2023-12-23 21:11:00,SystemResetWarning,0817.8,5.00,000.00,025.2,024.6,000.0,033.5,026.6,14.0,0000.0,0006.59,0002.56,0001.95
2023-12-23 21:12:00,SystemResetWarning,0817.8,5.00,000.00,025.2,024.6,000.0,033.5,026.6,14.0,0000.0,0006.31,0002.48,0001.94
2023-12-23 21:13:00,SystemResetWarning,0817.8,5.00,000.00,025.2,024.6,000.0,033.5,026.6,13.9,0000.0,0006.14,0002.48,0001.95
2023-12-23 21:14:00,SystemResetWarning,0817.7,5.00,000.00,025.2,024.6,000.0,033.5,026.6,13.9,0000.0,0005.41,0002.45,0001.94
2023-12-23 21:15:00,SystemResetWarning,0817.8,5.00,000.00,025.3,024.6,000.0,033.5,026.7,14.0,0000.0,0005.15,0002.37,0001.91
2023-12-23 21:16:00,SystemResetWarning,0817.8,5.00,000.00,025.3,024.6,000.0,033.5,026.7,14.0,0000.0,0005.07,0002.36,0001.90
2023-12-23 21:17:00,SystemResetWarning,0817.8,5.00,000.00,025.3,024.6,000.0,033.5,026.7,14.0,0000.0,0004.97,0002.36,0001.90
2023-12-23 21:18:00,SystemResetWarning,0817.8,5.01,000.00,025.3,024.6,000.0,033.6,026.7,14.0,0000.0,0004.99,0002.33,0001.89
2023-12-23 21:19:00,SystemResetWarning,0817.7,5.00,000.00,025.3,024.6,000.0,033.6,026.7,14.1,0000.0,0004.46,0002.32,0001.89
2023-12-23 21:20:00,SystemResetWarning,0817.7,5.01,000.00,025.3,024.6,000.0,033.6,026.7,14.1,0000.0,0003.90,0002.32,0001.88
2023-12-23 21:21:00,SystemResetWarning,0817.8,5.00,000.00,025.3,024.6,000.0,033.6,026.7,13.9,0000.0,0003.52,0002.32,0001.88
2023-12-23 21:22:00,SystemResetWarning,0817.8,5.00,000.00,025.3,024.6,000.0,033.6,026.7,13.9,0000.0,0003.82,0002.30,0001.86
2023-12-23 21:23:00,SystemResetWarning,0817.8,4.99,000.00,025.3,024.6,000.0,033.6,026.7,14.0,0000.0,0004.27,0002.27,0001.84
2023-12-23 21:24:00,SystemResetWarning,0817.8,5.00,000.00,025.3,024.6,000.0,033.6,026.7,14.1,0000.0,0004.26,0002.24,0001.80
2023-12-23 21:25:00,SystemResetWarning,0817.8,4.99,000.00,025.3,024.6,000.0,033.6,026.7,13.9,0000.0,0004.56,0002.22,0001.78
2023-12-23 21:26:00,SystemResetWarning,0817.8,5.00,000.00,025.3,024.6,000.0,033.6,026.7,14.0,0000.0,0004.72,0002.24,0001.77
2023-12-23 21:27:00,SystemResetWarning,0817.8,5.00,000.00,025.3,024.6,000.0,033.6,026.7,14.0,0000.0,0005.07,0002.22,0001.75
2023-12-23 21:28:00,SystemResetWarning,0817.8,5.01,000.00,025.3,024.7,000.0,033.6,026.7,14.1,0000.0,0006.15,0002.20,0001.74
2023-12-23 21:29:00,SystemResetWarning,0817.8,5.00,000.00,025.3,024.7,000.0,033.6,026.7,14.1,0000.0,0006.19,0002.21,0001.74
2023-12-23 21:30:00,SystemResetWarning,0817.8,5.01,000.00,025.3,024.7,000.0,033.6,026.7,14.0,0000.0,0006.45,0002.22,0001.73
2023-12-23 21:31:00,SystemResetWarning,0817.8,4.99,000.00,025.3,024.7,000.0,033.6,026.7,13.9,0000.0,0006.77,0002.21,0001.73
2023-12-23 21:32:00,SystemResetWarning,0817.8,4.99,000.00,025.3,024.7,000.0,033.6,026.7,13.9,0000.0,0006.80,0002.21,0001.73
2023-12-23 21:33:00,SystemResetWarning,0817.8,5.00,000.00,025.3,024.7,000.0,033.6,026.8,13.9,0000.0,0006.48,0002.20,0001.74
2023-12-23 21:34:00,SystemResetWarning,0817.8,5.00,000.00,025.4,024.7,000.0,033.6,026.8,13.9,0000.0,0006.05,0002.23,0001.75
2023-12-23 21:35:00,SystemResetWarning,0817.8,5.00,000.00,025.4,024.7,000.0,033.7,026.8,13.9,0000.0,0006.06,0002.25,0001.76
2023-12-23 21:36:00,SystemResetWarning,0817.8,5.00,000.00,025.4,024.7,000.0,033.7,026.8,13.9,0000.0,0005.68,0002.28,0001.79
2023-12-23 21:37:00,SystemResetWarning,0817.8,5.00,000.00,025.4,024.7,000.0,033.7,026.8,13.9,0000.0,0005.50,0002.29,0001.84
2023-12-23 21:38:00,SystemResetWarning,0817.8,5.00,000.00,025.4,024.7,000.0,033.7,026.8,14.0,0000.0,0005.37,0002.30,0001.87
2023-12-23 21:39:00,SystemResetWarning,0817.9,5.00,000.00,025.4,024.7,000.0,033.7,026.8,13.9,0000.0,0003.98,0002.28,0001.89
2023-12-23 21:40:00,SystemResetWarning,0817.9,5.00,000.00,025.4,024.7,000.0,033.7,026.9,13.9,0000.0,0003.96,0002.30,0001.91
2023-12-23 21:41:00,SystemResetWarning,0817.9,5.01,000.00,025.4,024.8,000.0,033.7,026.9,13.8,0000.0,0003.87,0002.31,0001.93
2023-12-23 21:42:00,SystemResetWarning,0818.0,5.00,000.00,025.5,024.8,000.0,033.7,026.9,13.8,0000.0,0005.52,0002.31,0001.97
2023-12-23 21:43:00,SystemResetWarning,0818.0,4.99,000.00,025.5,024.8,000.0,033.7,026.9,13.9,0000.0,0005.60,0002.33,0002.00
2023-12-23 21:44:00,SystemResetWarning,0818.0,5.00,000.00,025.5,024.8,000.0,033.7,026.9,13.9,0000.0,0005.63,0002.37,0002.02
2023-12-23 21:45:00,SystemResetWarning,0818.0,5.00,000.00,025.5,024.8,000.0,033.7,027.0,13.9,0000.0,0005.76,0002.45,0002.06
2023-12-23 21:46:00,SystemResetWarning,0818.0,5.00,000.00,025.5,024.8,000.0,033.7,027.0,13.9,0000.0,0006.21,0002.51,0002.11
2023-12-23 21:47:00,SystemResetWarning,0818.0,5.00,000.00,025.5,024.9,000.0,033.7,027.0,13.9,0000.0,0006.37,0002.52,0002.15
2023-12-23 21:48:00,SystemResetWarning,0818.0,4.99,000.00,025.5,024.9,000.0,033.8,027.0,13.8,0000.0,0006.35,0002.53,0002.18
2023-12-23 21:49:00,SystemResetWarning,0818.0,5.01,000.00,025.5,024.9,000.0,033.8,027.0,13.8,0000.0,0006.92,0002.59,0002.21
2023-12-23 21:50:00,SystemResetWarning,0818.0,5.00,000.00,025.6,024.9,000.0,033.8,027.0,13.9,0000.0,0007.14,0002.64,0002.24
2023-12-23 21:51:00,SystemResetWarning,0818.0,5.00,000.00,025.6,024.9,000.0,033.8,027.0,13.9,0000.0,0007.30,0002.71,0002.26
2023-12-23 21:52:00,SystemResetWarning,0818.0,5.00,000.00,025.6,024.9,000.0,033.8,027.1,13.8,0000.0,0007.33,0002.72,0002.26
2023-12-23 21:53:00,SystemResetWarning,0818.0,5.00,000.00,025.6,024.9,000.0,033.8,027.1,13.8,0000.0,0006.16,0002.78,0002.27
2023-12-23 21:54:00,SystemResetWarning,0818.0,5.00,000.00,025.6,025.0,000.0,033.8,027.1,13.8,0000.0,0006.01,0002.83,0002.30
2023-12-23 21:55:00,SystemResetWarning,0818.1,5.00,000.00,025.6,025.0,000.0,033.8,027.1,13.9,0000.0,0006.02,0002.84,0002.31
2023-12-23 21:56:00,SystemResetWarning,0818.1,5.00,000.00,025.6,025.0,000.0,033.9,027.1,13.9,0000.0,0005.84,0002.78,0002.30
2023-12-23 21:57:00,SystemResetWarning,0818.1,5.00,000.00,025.7,025.0,000.0,033.9,027.1,13.9,0000.0,0005.39,0002.75,0002.30
2023-12-23 21:58:00,SystemResetWarning,0818.1,5.00,000.00,025.7,025.0,000.0,033.9,027.1,13.9,0000.0,0005.04,0002.72,0002.28
2023-12-23 21:59:00,SystemResetWarning,0818.1,5.00,000.00,025.7,025.0,000.0,033.9,027.1,13.9,0000.0,0005.12,0002.73,0002.28
